This is the latest recevied weather packets stored in our database for station/object HOWARD. If no packets are shown the sender has not sent any weather packets the latest 10 day(s).
| Time | Temp. | Humidity | Pressure | Rain* | Wind** | Luminosity | Snow |
|---|---|---|---|---|---|---|---|
| 1777486334 | 1.11° C | 75% | 1015.8 hPa | 0 mm | - | - | - |
| 1777486300 | 1.11° C | 75% | 1015.8 hPa | 0 mm | - | - | - |
| 1777485699 | 0.56° C | 75% | 1015.7 hPa | 0 mm | - | - | - |
| 1777485100 | 1.67° C | 75% | 1015.7 hPa | 0 mm | - | - | - |
| 1777484500 | 1.11° C | 76% | 1015.6 hPa | 0 mm | - | - | - |
| 1777483899 | 1.67° C | 78% | 1015.4 hPa | 0 mm | - | - | - |
| 1777483300 | 1.11° C | 76% | 1015.3 hPa | 0 mm | - | - | - |
| 1777482699 | 1.11° C | 76% | 1015.2 hPa | 0 mm | - | - | - |
| 1777482099 | 0.56° C | 75% | 1015.1 hPa | 0 mm | - | - | - |
| 1777481499 | 1.11° C | 70% | 1015.1 hPa | 0 mm | - | - | - |
| 1777480899 | 1.11° C | 73% | 1015 hPa | 0 mm | - | - | - |
| 1777480299 | 1.11° C | 71% | 1014.9 hPa | 0 mm | - | - | - |
| 1777479699 | 1.11° C | 67% | 1014.8 hPa | 0 mm | - | - | - |
| 1777479099 | 1.11° C | 69% | 1014.8 hPa | 0 mm | - | - | - |
| 1777478499 | 1.11° C | 69% | 1014.7 hPa | 0 mm | - | - | - |
| 1777477899 | 1.11° C | 71% | 1014.7 hPa | 0 mm | - | - | - |
| 1777477299 | 1.11° C | 71% | 1014.8 hPa | 0 mm | - | - | - |
| 1777476699 | 1.11° C | 72% | 1014.6 hPa | 0 mm | - | - | - |
| 1777476099 | 0.56° C | 71% | 1014.4 hPa | 0 mm | - | - | - |
| 1777475499 | 0° C | 74% | 1014.5 hPa | 0 mm | - | - | - |
| 1777474899 | 0° C | 74% | 1014.5 hPa | 0 mm | - | - | - |
| 1777474299 | 0° C | 72% | 1014.5 hPa | 0 mm | - | - | - |
| 1777473699 | -0.56° C | 72% | 1014.4 hPa | 0 mm | - | - | - |
| 1777473100 | -0.56° C | 72% | 1014.3 hPa | 0 mm | - | - | - |
| 1777472499 | -0.56° C | 70% | 1014.3 hPa | 0 mm | - | - | - |
* Rain latest hour (hover to see other rain measurements)
** Current wind speed in m/s (hover to see current wind gust speed)